Time,TemperatureF,DewpointF,PressureIn,WindDirection,WindDirectionDegrees,WindSpeedMPH,WindSpeedGustMPH,Humidity,HourlyPrecipIn,Conditions,Clouds,dailyrainin,SoftwareType,DateUTC
2013-06-08 00:02:00,65.0,33.0,-100.00,West,259,4.0,12.0,30,-99.99,,,-99.99,,2013-06-08 06:02:00,
2013-06-08 00:12:00,64.0,33.0,-100.00,West,267,6.0,16.0,30,-99.99,,,-99.99,,2013-06-08 06:12:00,
2013-06-08 00:22:00,64.0,33.0,-100.00,West,267,6.0,16.0,30,-99.99,,,-99.99,,2013-06-08 06:22:00,
2013-06-08 00:32:00,64.0,33.0,-100.00,West,267,6.0,16.0,30,-99.99,,,-99.99,,2013-06-08 06:32:00,
2013-06-08 00:42:00,64.0,33.0,-100.00,West,275,6.0,13.0,31,-99.99,,,-99.99,,2013-06-08 06:42:00,
2013-06-08 00:52:00,64.0,33.0,-100.00,West,275,6.0,13.0,31,-99.99,,,-99.99,,2013-06-08 06:52:00,
2013-06-08 01:02:00,64.0,33.0,-100.00,NW,304,4.0,11.0,31,-99.99,,,-99.99,,2013-06-08 07:02:00,
2013-06-08 01:12:00,63.0,33.0,-100.00,WNW,284,5.0,11.0,32,-99.99,,,-99.99,,2013-06-08 07:12:00,
2013-06-08 01:22:00,63.0,33.0,-100.00,WNW,284,5.0,11.0,32,-99.99,,,-99.99,,2013-06-08 07:22:00,
2013-06-08 01:32:00,63.0,33.0,-100.00,WNW,284,5.0,11.0,32,-99.99,,,-99.99,,2013-06-08 07:32:00,
2013-06-08 01:42:00,63.0,34.0,-100.00,West,262,7.0,16.0,33,-99.99,,,-99.99,,2013-06-08 07:42:00,
2013-06-08 01:52:00,63.0,34.0,-100.00,West,262,7.0,16.0,33,-99.99,,,-99.99,,2013-06-08 07:52:00,
2013-06-08 02:02:00,63.0,34.0,-100.00,West,267,7.0,14.0,34,-99.99,,,-99.99,,2013-06-08 08:02:00,
2013-06-08 02:12:00,63.0,34.0,-100.00,West,265,9.0,16.0,34,-99.99,,,-99.99,,2013-06-08 08:12:00,
2013-06-08 02:22:00,63.0,34.0,-100.00,West,265,9.0,16.0,34,-99.99,,,-99.99,,2013-06-08 08:22:00,
2013-06-08 02:32:00,63.0,34.0,-100.00,West,265,9.0,16.0,34,-99.99,,,-99.99,,2013-06-08 08:32:00,
2013-06-08 02:42:00,62.0,34.0,-100.00,West,275,8.0,24.0,35,-99.99,,,-99.99,,2013-06-08 08:42:00,
2013-06-08 02:53:00,62.0,34.0,-100.00,West,275,8.0,24.0,35,-99.99,,,-99.99,,2013-06-08 08:53:00,
2013-06-08 03:02:00,62.0,34.0,-100.00,West,274,7.0,18.0,35,-99.99,,,-99.99,,2013-06-08 09:02:00,
2013-06-08 03:12:00,62.0,34.0,-100.00,West,271,11.0,23.0,35,-99.99,,,-99.99,,2013-06-08 09:12:00,
2013-06-08 03:22:00,62.0,34.0,-100.00,West,271,11.0,23.0,35,-99.99,,,-99.99,,2013-06-08 09:22:00,
2013-06-08 03:33:00,62.0,34.0,-100.00,West,271,11.0,23.0,35,-99.99,,,-99.99,,2013-06-08 09:33:00,
2013-06-08 03:42:00,62.0,34.0,-100.00,West,259,8.0,23.0,35,-99.99,,,-99.99,,2013-06-08 09:42:00,
2013-06-08 03:53:00,62.0,34.0,-100.00,West,259,8.0,23.0,35,-99.99,,,-99.99,,2013-06-08 09:53:00,
2013-06-08 04:02:00,62.0,33.0,-100.00,WNW,282,8.0,27.0,34,-99.99,,,-99.99,,2013-06-08 10:02:00,
2013-06-08 04:12:00,61.0,34.0,-100.00,WNW,301,5.0,14.0,35,-99.99,,,-99.99,,2013-06-08 10:12:00,
2013-06-08 04:22:00,61.0,34.0,-100.00,WNW,301,5.0,14.0,35,-99.99,,,-99.99,,2013-06-08 10:22:00,
2013-06-08 04:33:00,61.0,34.0,-100.00,WNW,301,5.0,14.0,35,-99.99,,,-99.99,,2013-06-08 10:33:00,
2013-06-08 04:42:00,57.0,36.0,-100.00,NW,306,5.0,9.0,44,-99.99,,,-99.99,,2013-06-08 10:42:00,
2013-06-08 04:53:00,57.0,36.0,-100.00,NW,306,5.0,9.0,44,-99.99,,,-99.99,,2013-06-08 10:53:00,
2013-06-08 05:02:00,58.0,36.0,-100.00,West,268,7.0,16.0,43,-99.99,,,-99.99,,2013-06-08 11:02:00,
2013-06-08 05:12:00,59.0,36.0,-100.00,West,263,9.0,19.0,42,-99.99,,,-99.99,,2013-06-08 11:12:00,
2013-06-08 05:22:00,59.0,36.0,-100.00,West,263,9.0,19.0,42,-99.99,,,-99.99,,2013-06-08 11:22:00,
2013-06-08 05:32:00,59.0,36.0,-100.00,West,263,9.0,19.0,42,-99.99,,,-99.99,,2013-06-08 11:32:00,
2013-06-08 05:42:00,59.0,34.0,-100.00,West,265,8.0,18.0,40,-99.99,,,-99.99,,2013-06-08 11:42:00,
2013-06-08 05:52:00,59.0,34.0,-100.00,West,265,8.0,18.0,40,-99.99,,,-99.99,,2013-06-08 11:52:00,
2013-06-08 06:02:00,58.0,34.0,-100.00,West,278,8.0,18.0,38,-99.99,,,-99.99,,2013-06-08 12:02:00,
2013-06-08 06:12:00,58.0,33.0,-100.00,West,268,10.0,22.0,38,-99.99,,,-99.99,,2013-06-08 12:12:00,
2013-06-08 06:22:00,58.0,33.0,-100.00,West,268,10.0,22.0,38,-99.99,,,-99.99,,2013-06-08 12:22:00,
2013-06-08 06:32:00,58.0,33.0,-100.00,West,268,10.0,22.0,38,-99.99,,,-99.99,,2013-06-08 12:32:00,
2013-06-08 06:42:00,58.0,31.0,-100.00,West,261,11.0,22.0,35,-99.99,,,-99.99,,2013-06-08 12:42:00,
2013-06-08 06:52:00,58.0,31.0,-100.00,West,261,11.0,22.0,35,-99.99,,,-99.99,,2013-06-08 12:52:00,
2013-06-08 07:02:00,59.0,31.0,-100.00,West,262,10.0,27.0,34,-99.99,,,-99.99,,2013-06-08 13:02:00,
2013-06-08 07:12:00,59.0,30.0,-100.00,West,260,11.0,19.0,32,-99.99,,,-99.99,,2013-06-08 13:12:00,
2013-06-08 07:22:00,59.0,30.0,-100.00,West,260,11.0,19.0,32,-99.99,,,-99.99,,2013-06-08 13:22:00,
2013-06-08 07:32:00,59.0,30.0,-100.00,West,260,11.0,19.0,32,-99.99,,,-99.99,,2013-06-08 13:32:00,
2013-06-08 07:42:00,60.0,29.0,-100.00,WNW,282,9.0,20.0,30,-99.99,,,-99.99,,2013-06-08 13:42:00,
2013-06-08 07:52:00,60.0,28.0,-100.00,West,277,8.0,20.0,29,-99.99,,,-99.99,,2013-06-08 13:52:00,
2013-06-08 08:02:00,60.0,28.0,-100.00,West,277,8.0,20.0,29,-99.99,,,-99.99,,2013-06-08 14:02:00,
2013-06-08 08:12:00,61.0,27.0,-100.00,WNW,294,7.0,23.0,27,-99.99,,,-99.99,,2013-06-08 14:12:00,
2013-06-08 08:22:00,61.0,27.0,-100.00,WNW,294,7.0,23.0,27,-99.99,,,-99.99,,2013-06-08 14:22:00,
2013-06-08 08:32:00,61.0,27.0,-100.00,WNW,294,7.0,23.0,27,-99.99,,,-99.99,,2013-06-08 14:32:00,
2013-06-08 08:42:00,61.0,24.0,-100.00,WNW,288,6.0,15.0,24,-99.99,,,-99.99,,2013-06-08 14:42:00,
2013-06-08 08:52:00,61.0,24.0,-100.00,WNW,288,6.0,15.0,24,-99.99,,,-99.99,,2013-06-08 14:52:00,
2013-06-08 09:02:00,61.0,20.0,-100.00,WNW,302,4.0,13.0,20,-99.99,,,-99.99,,2013-06-08 15:02:00,
2013-06-08 09:12:00,63.0,22.0,-100.00,North,353,4.0,13.0,20,-99.99,,,-99.99,,2013-06-08 15:12:00,
2013-06-08 09:22:00,63.0,22.0,-100.00,North,353,4.0,13.0,20,-99.99,,,-99.99,,2013-06-08 15:22:00,
2013-06-08 09:32:00,63.0,22.0,-100.00,North,353,4.0,13.0,20,-99.99,,,-99.99,,2013-06-08 15:32:00,
2013-06-08 09:42:00,63.0,19.0,-100.00,NW,311,6.0,17.0,18,-99.99,,,-99.99,,2013-06-08 15:42:00,
2013-06-08 09:53:00,63.0,19.0,-100.00,NW,311,6.0,17.0,18,-99.99,,,-99.99,,2013-06-08 15:53:00,
2013-06-08 10:03:00,63.0,18.0,-100.00,WNW,296,6.0,22.0,17,-99.99,,,-99.99,,2013-06-08 16:03:00,
2013-06-08 10:12:00,64.0,18.0,-100.00,NW,309,4.0,13.0,16,-99.99,,,-99.99,,2013-06-08 16:12:00,
2013-06-08 10:23:00,64.0,18.0,-100.00,NW,309,4.0,13.0,16,-99.99,,,-99.99,,2013-06-08 16:23:00,
2013-06-08 10:32:00,64.0,18.0,-100.00,NW,309,4.0,13.0,16,-99.99,,,-99.99,,2013-06-08 16:32:00,
2013-06-08 10:42:00,66.0,18.0,-100.00,West,281,5.0,13.0,16,-99.99,,,-99.99,,2013-06-08 16:42:00,
2013-06-08 10:53:00,66.0,18.0,-100.00,West,281,5.0,13.0,16,-99.99,,,-99.99,,2013-06-08 16:53:00,
2013-06-08 11:02:00,64.0,20.0,-100.00,West,273,6.0,15.0,18,-99.99,,,-99.99,,2013-06-08 17:02:00,
2013-06-08 11:12:00,64.0,23.0,-100.00,WNW,287,5.0,12.0,20,-99.99,,,-99.99,,2013-06-08 17:12:00,
2013-06-08 11:22:00,64.0,23.0,-100.00,WNW,287,5.0,12.0,20,-99.99,,,-99.99,,2013-06-08 17:22:00,
2013-06-08 11:32:00,64.0,23.0,-100.00,WNW,287,5.0,12.0,20,-99.99,,,-99.99,,2013-06-08 17:32:00,
2013-06-08 11:42:00,65.0,25.0,-100.00,NW,311,5.0,16.0,22,-99.99,,,-99.99,,2013-06-08 17:42:00,
2013-06-08 11:52:00,65.0,25.0,-100.00,NW,311,5.0,16.0,22,-99.99,,,-99.99,,2013-06-08 17:52:00,
2013-06-08 12:02:00,65.0,25.0,-100.00,NW,317,6.0,15.0,22,-99.99,,,-99.99,,2013-06-08 18:02:00,
2013-06-08 12:12:00,66.0,26.0,-100.00,NW,313,5.0,15.0,21,-99.99,,,-99.99,,2013-06-08 18:12:00,
2013-06-08 12:22:00,66.0,26.0,-100.00,NW,313,5.0,15.0,21,-99.99,,,-99.99,,2013-06-08 18:22:00,
2013-06-08 12:32:00,66.0,26.0,-100.00,NW,313,5.0,15.0,21,-99.99,,,-99.99,,2013-06-08 18:32:00,
2013-06-08 12:41:00,68.0,25.0,-100.00,WNW,296,4.0,16.0,20,-99.99,,,-99.99,,2013-06-08 18:41:00,
2013-06-08 12:52:00,68.0,25.0,-100.00,WNW,296,4.0,16.0,20,-99.99,,,-99.99,,2013-06-08 18:52:00,
2013-06-08 13:02:00,68.0,25.0,-100.00,NW,308,4.0,13.0,19,-99.99,,,-99.99,,2013-06-08 19:02:00,
2013-06-08 13:12:00,69.0,25.0,-100.00,NW,309,6.0,14.0,18,-99.99,,,-99.99,,2013-06-08 19:12:00,
2013-06-08 13:22:00,69.0,25.0,-100.00,NW,309,6.0,14.0,18,-99.99,,,-99.99,,2013-06-08 19:22:00,
2013-06-08 13:32:00,69.0,25.0,-100.00,NW,309,6.0,14.0,18,-99.99,,,-99.99,,2013-06-08 19:32:00,
2013-06-08 13:42:00,68.0,23.0,-100.00,WNW,300,7.0,16.0,17,-99.99,,,-99.99,,2013-06-08 19:42:00,
2013-06-08 13:53:00,68.0,23.0,-100.00,WNW,300,7.0,16.0,17,-99.99,,,-99.99,,2013-06-08 19:53:00,
2013-06-08 14:02:00,69.0,26.0,-100.00,NW,309,7.0,19.0,19,-99.99,,,-99.99,,2013-06-08 20:02:00,
2013-06-08 14:12:00,69.0,24.0,-100.00,WNW,283,6.0,15.0,18,-99.99,,,-99.99,,2013-06-08 20:12:00,
2013-06-08 14:22:00,69.0,24.0,-100.00,WNW,283,6.0,15.0,18,-99.99,,,-99.99,,2013-06-08 20:22:00,
2013-06-08 14:32:00,69.0,24.0,-100.00,WNW,283,6.0,15.0,18,-99.99,,,-99.99,,2013-06-08 20:32:00,
2013-06-08 14:42:00,70.0,28.0,-100.00,NW,322,5.0,13.0,20,-99.99,,,-99.99,,2013-06-08 20:42:00,
2013-06-08 14:52:00,71.0,25.0,-100.00,NW,311,5.0,17.0,18,-99.99,,,-99.99,,2013-06-08 20:52:00,
2013-06-08 15:02:00,71.0,25.0,-100.00,NW,311,5.0,17.0,18,-99.99,,,-99.99,,2013-06-08 21:02:00,
2013-06-08 15:12:00,71.0,23.0,-100.00,NW,324,5.0,15.0,16,-99.99,,,-99.99,,2013-06-08 21:12:00,
2013-06-08 15:22:00,71.0,23.0,-100.00,NW,324,5.0,15.0,16,-99.99,,,-99.99,,2013-06-08 21:22:00,
2013-06-08 15:33:00,71.0,23.0,-100.00,NW,324,5.0,15.0,16,-99.99,,,-99.99,,2013-06-08 21:33:00,
2013-06-08 15:43:00,72.0,24.0,-100.00,NW,319,8.0,16.0,16,-99.99,,,-99.99,,2013-06-08 21:43:00,
2013-06-08 15:53:00,71.0,24.0,-100.00,NW,314,6.0,17.0,16,-99.99,,,-99.99,,2013-06-08 21:53:00,
2013-06-08 16:02:00,71.0,24.0,-100.00,NW,314,6.0,17.0,16,-99.99,,,-99.99,,2013-06-08 22:02:00,
2013-06-08 16:12:00,71.0,24.0,-100.00,NW,306,6.0,18.0,17,-99.99,,,-99.99,,2013-06-08 22:12:00,
2013-06-08 16:22:00,71.0,24.0,-100.00,NW,306,6.0,18.0,17,-99.99,,,-99.99,,2013-06-08 22:22:00,
2013-06-08 16:33:00,71.0,24.0,-100.00,NW,306,6.0,18.0,17,-99.99,,,-99.99,,2013-06-08 22:33:00,
2013-06-08 16:42:00,72.0,26.0,-100.00,NNW,336,3.0,14.0,18,-99.99,,,-99.99,,2013-06-08 22:42:00,
2013-06-08 16:52:00,71.0,27.0,-100.00,WNW,297,5.0,19.0,19,-99.99,,,-99.99,,2013-06-08 22:52:00,
2013-06-08 17:02:00,71.0,27.0,-100.00,WNW,297,5.0,19.0,19,-99.99,,,-99.99,,2013-06-08 23:02:00,
2013-06-08 17:12:00,71.0,26.0,-100.00,WNW,295,8.0,21.0,18,-99.99,,,-99.99,,2013-06-08 23:12:00,
2013-06-08 17:22:00,71.0,26.0,-100.00,WNW,295,8.0,21.0,18,-99.99,,,-99.99,,2013-06-08 23:22:00,
2013-06-08 17:32:00,71.0,26.0,-100.00,WNW,295,8.0,21.0,18,-99.99,,,-99.99,,2013-06-08 23:32:00,
2013-06-08 17:42:00,70.0,23.0,-100.00,West,264,8.0,22.0,16,-99.99,,,-99.99,,2013-06-08 23:42:00,
2013-06-08 17:52:00,70.0,24.0,-100.00,WNW,299,4.0,14.0,17,-99.99,,,-99.99,,2013-06-08 23:52:00,
2013-06-08 18:02:00,70.0,24.0,-100.00,WNW,299,4.0,14.0,17,-99.99,,,-99.99,,2013-06-09 00:02:00,
2013-06-08 18:12:00,70.0,23.0,-100.00,WNW,295,5.0,12.0,16,-99.99,,,-99.99,,2013-06-09 00:12:00,
2013-06-08 18:22:00,70.0,23.0,-100.00,WNW,295,5.0,12.0,16,-99.99,,,-99.99,,2013-06-09 00:22:00,
2013-06-08 18:32:00,70.0,23.0,-100.00,WNW,295,5.0,12.0,16,-99.99,,,-99.99,,2013-06-09 00:32:00,
2013-06-08 18:42:00,69.0,21.0,-100.00,West,275,8.0,15.0,16,-99.99,,,-99.99,,2013-06-09 00:42:00,
2013-06-08 18:52:00,68.0,24.0,-100.00,WNW,284,7.0,15.0,18,-99.99,,,-99.99,,2013-06-09 00:52:00,
2013-06-08 19:02:00,68.0,24.0,-100.00,WNW,284,7.0,15.0,18,-99.99,,,-99.99,,2013-06-09 01:02:00,
2013-06-08 19:12:00,68.0,23.0,-100.00,WNW,282,6.0,18.0,17,-99.99,,,-99.99,,2013-06-09 01:12:00,
2013-06-08 19:22:00,68.0,23.0,-100.00,WNW,282,6.0,18.0,17,-99.99,,,-99.99,,2013-06-09 01:22:00,
2013-06-08 19:32:00,68.0,23.0,-100.00,WNW,282,6.0,18.0,17,-99.99,,,-99.99,,2013-06-09 01:32:00,
2013-06-08 19:42:00,68.0,25.0,-100.00,West,272,8.0,15.0,19,-99.99,,,-99.99,,2013-06-09 01:42:00,
2013-06-08 19:52:00,67.0,25.0,-100.00,West,269,5.0,14.0,20,-99.99,,,-99.99,,2013-06-09 01:52:00,
2013-06-08 20:02:00,67.0,25.0,-100.00,West,269,5.0,14.0,20,-99.99,,,-99.99,,2013-06-09 02:02:00,
2013-06-08 20:12:00,67.0,25.0,-100.00,West,269,6.0,13.0,20,-99.99,,,-99.99,,2013-06-09 02:12:00,
2013-06-08 20:22:00,67.0,25.0,-100.00,West,269,6.0,13.0,20,-99.99,,,-99.99,,2013-06-09 02:22:00,
2013-06-08 20:32:00,67.0,25.0,-100.00,West,269,6.0,13.0,20,-99.99,,,-99.99,,2013-06-09 02:32:00,
2013-06-08 20:42:00,65.0,24.0,-100.00,West,259,7.0,13.0,21,-99.99,,,-99.99,,2013-06-09 02:42:00,
2013-06-08 20:52:00,65.0,24.0,-100.00,West,259,7.0,13.0,21,-99.99,,,-99.99,,2013-06-09 02:52:00,
2013-06-08 21:02:00,64.0,23.0,-100.00,West,269,7.0,17.0,20,-99.99,,,-99.99,,2013-06-09 03:02:00,
2013-06-08 21:12:00,63.0,22.0,-100.00,West,261,8.0,13.0,20,-99.99,,,-99.99,,2013-06-09 03:12:00,
2013-06-08 21:22:00,63.0,22.0,-100.00,West,261,8.0,13.0,20,-99.99,,,-99.99,,2013-06-09 03:22:00,
2013-06-08 21:32:00,63.0,22.0,-100.00,West,261,8.0,13.0,20,-99.99,,,-99.99,,2013-06-09 03:32:00,
2013-06-08 21:43:00,63.0,20.0,-100.00,West,260,7.0,18.0,19,-99.99,,,-99.99,,2013-06-09 03:43:00,
2013-06-08 21:53:00,63.0,20.0,-100.00,West,262,7.0,16.0,18,-99.99,,,-99.99,,2013-06-09 03:53:00,
2013-06-08 22:02:00,63.0,20.0,-100.00,West,262,7.0,16.0,18,-99.99,,,-99.99,,2013-06-09 04:02:00,
2013-06-08 22:12:00,63.0,20.0,-100.00,West,260,7.0,15.0,18,-99.99,,,-99.99,,2013-06-09 04:12:00,
2013-06-08 22:22:00,63.0,20.0,-100.00,West,260,7.0,15.0,18,-99.99,,,-99.99,,2013-06-09 04:22:00,
2013-06-08 22:32:00,63.0,20.0,-100.00,West,260,7.0,15.0,18,-99.99,,,-99.99,,2013-06-09 04:32:00,
2013-06-08 22:42:00,63.0,21.0,-100.00,WSW,248,6.0,10.0,19,-99.99,,,-99.99,,2013-06-09 04:42:00,
2013-06-08 22:53:00,63.0,21.0,-100.00,WSW,248,6.0,10.0,19,-99.99,,,-99.99,,2013-06-09 04:53:00,
2013-06-08 23:02:00,63.0,21.0,-100.00,WSW,254,6.0,10.0,19,-99.99,,,-99.99,,2013-06-09 05:02:00,
2013-06-08 23:12:00,63.0,21.0,-100.00,West,266,4.0,7.0,19,-99.99,,,-99.99,,2013-06-09 05:12:00,
2013-06-08 23:22:00,63.0,21.0,-100.00,West,266,4.0,7.0,19,-99.99,,,-99.99,,2013-06-09 05:22:00,
2013-06-08 23:32:00,63.0,21.0,-100.00,West,266,4.0,7.0,19,-99.99,,,-99.99,,2013-06-09 05:32:00,
2013-06-08 23:42:00,63.0,21.0,-100.00,West,261,3.0,8.0,19,-99.99,,,-99.99,,2013-06-09 05:42:00,
2013-06-08 23:52:00,63.0,21.0,-100.00,West,261,3.0,8.0,19,-99.99,,,-99.99,,2013-06-09 05:52:00,